Flag for United Kingdom Weather past 2 weeks in Haywards Heath, England, United Kingdom

Now
61 °F

Partly cloudy.


Feels Like: 61 °F
Forecast: 52 / 69 °F
Wind: 8 mph from Southwest

Location: London / Gatwick Airport

Current Time: Aug 30, 2014 at 5:41:13 AM

Latest Report: Aug 30, 2014 at 5:20 AM


Visibility: N/A

Pressure: 29.95 "Hg

Humidity: 94%

Dew point: 59 °F

Location of Haywards HeathLocation

Historic Weather in Haywards Heath — Graph

°F

Haywards Heath temperature yesterday

Maximum temperature yesterday: 66 °F (at 1:50 PM)
Minimum temperature yesterday: 57 °F (at 12:20 AM)
Average temperature yesterday: 61 °F

Past Weeks' High & Low Weather Summary

 TemperatureHumidityPressure
High70 °F (Aug 28, 1:50 PM)100% (Aug 20, 6:20 AM)30.18 "Hg (Aug 20, 6:20 AM)
Low41 °F (Aug 21, 5:50 AM)40% (Aug 22, 3:20 PM)29.56 "Hg (Aug 25, 7:20 PM)
Average59 °F76%29.92 "Hg
* Reported Aug 15 4:20 AM — Aug 30 4:20 AM, Haywards Heath, Weather by CustomWeather, © 2014

Note: Actual official high and low records may vary slightly from our data, if they occured in-between our weather recording intervals... More about our weather records

Advertising

Haywards Heath weather history for previous 24 hours

 ConditionsComfort  
Time TempWeatherWind HumidityBarometerVisibility
4:20 AM
Aug 30
61 °FLight rain. Partly cloudy.9 mph94%29.95 "HgN/A
3:50 AM63 °FLight rain. Passing clouds.10 mph83%29.95 "HgN/A
3:20 AM63 °FPassing clouds.8 mph83%29.95 "HgN/A
2:50 AM63 °FPassing clouds.9 mph83%29.95 "HgN/A
2:20 AM63 °FPassing clouds.10 mph83%29.95 "HgN/A
1:50 AM63 °FPassing clouds.9 mph83%29.95 "HgN/A
1:20 AM63 °FPassing clouds.9 mph83%29.95 "HgN/A
12:50 AM63 °FPassing clouds.12 mph83%29.95 "HgN/A
12:20 AM63 °FPassing clouds.9 mph83%29.95 "HgN/A
11:50 PM
Aug 29
63 °FPassing clouds.9 mph83%29.95 "HgN/A
11:20 PM63 °FPassing clouds.9 mph83%29.95 "HgN/A
10:50 PM63 °FPartly cloudy.9 mph83%29.95 "HgN/A
10:20 PM63 °FPassing clouds.8 mph83%29.95 "HgN/A
8:20 PM63 °FBroken clouds.10 mph83%29.95 "HgN/A
7:50 PM63 °FPartly sunny.12 mph83%29.95 "HgN/A
7:20 PM63 °FPartly sunny.12 mph83%29.95 "HgN/A
6:50 PM63 °FPartly sunny.13 mph83%29.95 "HgN/A
6:20 PM64 °FScattered clouds.14 mph78%29.95 "HgN/A
5:50 PM64 °FScattered clouds.15 mph78%29.95 "HgN/A
5:20 PM64 °FScattered clouds.14 mph73%29.95 "HgN/A
4:50 PM66 °FScattered clouds.15 mph68%29.95 "HgN/A
4:20 PM66 °FScattered clouds.13 mph68%29.95 "HgN/A
3:50 PM66 °FPartly sunny.14 mph68%29.95 "HgN/A
3:20 PM64 °FPartly sunny.13 mph73%29.95 "HgN/A
2:50 PM66 °FScattered clouds.15 mph68%29.95 "HgN/A
2:20 PM66 °FScattered clouds.16 mph68%29.95 "HgN/A
1:50 PM66 °FPartly sunny.15 mph68%29.95 "HgN/A
1:20 PM64 °FPartly sunny.16 mph73%29.95 "HgN/A
12:50 PM64 °FScattered clouds.17 mph73%29.95 "HgN/A
12:20 PM64 °FScattered clouds.16 mph78%29.95 "HgN/A
11:50 AM63 °FPassing clouds.12 mph83%29.95 "HgN/A
11:20 AM63 °FPassing clouds.13 mph83%29.95 "HgN/A
10:50 AM63 °FPassing clouds.10 mph83%29.95 "HgN/A
10:20 AM59 °FBroken clouds.10 mph88%29.95 "HgN/A
9:50 AM63 °FRain showers. Broken clouds.15 mph83%29.95 "Hg4 mi
9:20 AM63 °FScattered clouds.13 mph83%29.95 "HgN/A
8:50 AM61 °FPassing clouds.8 mph94%29.95 "HgN/A
8:20 AM59 °FSprinkles. Scattered clouds.8 mph94%29.95 "HgN/A
7:50 AM59 °FLight rain. Broken clouds.7 mph94%29.95 "HgN/A
7:20 AM59 °FSunny.6 mph88%29.92 "Hg10 mi
6:50 AM57 °FScattered showers. Passing clouds.8 mph94%29.92 "HgN/A
6:20 AM57 °FScattered showers. Passing clouds.8 mph94%29.92 "HgN/A
5:50 AM57 °FClear.7 mph88%29.92 "Hg10 mi
5:20 AM57 °FClear.7 mph94%29.92 "Hg10 mi
Weather by CustomWeather, © 2014

See weather overviewHow to use our weather pages